This is the latest recevied weather packets stored in our database for station/object KO4WIL-13. If no packets are shown the sender has not sent any weather packets the latest 10 day(s).
| Time | Temp. | Humidity | Pressure | Rain* | Wind** | Luminosity | Snow |
|---|---|---|---|---|---|---|---|
| 1776971400 | 25° C | 40% | 969 hPa | 0 mm | - | - | - |
| 1776971098 | 25° C | 41% | 969.1 hPa | 0 mm | - | - | - |
| 1776970796 | 24.44° C | 40% | 969.1 hPa | 0 mm | - | - | - |
| 1776970494 | 24.44° C | 41% | 969.2 hPa | 0 mm | - | - | - |
| 1776970191 | 24.44° C | 40% | 969.2 hPa | 0 mm | - | - | - |
| 1776969889 | 24.44° C | 45% | 969.4 hPa | 0 mm | - | - | - |
| 1776969587 | 23.89° C | 41% | 969.4 hPa | 0 mm | - | - | - |
| 1776969285 | 23.89° C | 42% | 969.5 hPa | 0 mm | - | - | - |
| 1776968983 | 24.44° C | 43% | 969.6 hPa | 0 mm | - | - | - |
| 1776968681 | 24.44° C | 41% | 969.6 hPa | 0 mm | - | - | - |
| 1776968379 | 24.44° C | 41% | 969.7 hPa | 0 mm | - | - | - |
| 1776968077 | 24.44° C | 44% | 969.8 hPa | 0 mm | - | - | - |
| 1776967775 | 24.44° C | 45% | 969.8 hPa | 0 mm | - | - | - |
| 1776967473 | 24.44° C | 42% | 969.9 hPa | 0 mm | - | - | - |
| 1776967171 | 23.89° C | 44% | 970 hPa | 0 mm | - | - | - |
| 1776966869 | 23.89° C | 51% | 970.1 hPa | 0 mm | - | - | - |
| 1776966567 | 23.89° C | 45% | 970.2 hPa | 0 mm | - | - | - |
| 1776966265 | 23.89° C | 47% | 970.3 hPa | 0 mm | - | - | - |
| 1776965963 | 23.89° C | 49% | 970.4 hPa | 0 mm | - | - | - |
| 1776965661 | 23.89° C | 46% | 970.5 hPa | 0 mm | - | - | - |
| 1776965359 | 23.33° C | 48% | 970.6 hPa | 0 mm | - | - | - |
| 1776965057 | 23.33° C | 50% | 970.7 hPa | 0 mm | - | - | - |
| 1776964755 | 23.33° C | 51% | 970.8 hPa | 0 mm | - | - | - |
| 1776964452 | 23.33° C | 51% | 970.9 hPa | 0 mm | - | - | - |
| 1776964151 | 22.78° C | 54% | 971 hPa | 0 mm | - | - | - |
* Rain latest hour (hover to see other rain measurements)
** Current wind speed in m/s (hover to see current wind gust speed)